Flag for Norfolk Island Weather past 2 weeks in Kingston, Norfolk Island

Now
72 °F

Passing clouds.


Feels Like: 69 °F
Forecast: 72 / 76 °F
Wind: 13 mph from Northeast

Location: Norfolk Island Airport

Current Time: Feb 2, 2015 at 4:14:27 AM

Latest Report: Feb 2, 2015 at 3:30 AM


Visibility: N/A

Pressure: 29.77 "Hg

Humidity: 88%

Dew point: 68 °F

Location of KingstonLocation

Historic Weather in Kingston — Graph

°F

Kingston temperature yesterday

Maximum temperature yesterday: 75 °F (at 11:30 AM)
Minimum temperature yesterday: 72 °F (at 12:00 AM)
Average temperature yesterday: 73 °F

Past Weeks' High & Low Weather Summary

 TemperatureHumidityPressure
High79 °F (Jan 30, 11:30 AM)100% (Jan 21, 3:30 PM)29.95 "Hg (Jan 21, 3:30 PM)
Low66 °F (Jan 19, 2:32 AM)61% (Jan 19, 11:00 AM)29.68 "Hg (Jan 27, 3:30 PM)
Average73 °F83%29.80 "Hg
* Reported Jan 18 2:30 AM — Feb 2 3:00 AM, Kingston, Weather by CustomWeather, © 2014

Note: Actual official high and low records may vary slightly from our data, if they occured in-between our weather recording intervals... More about our weather records

Advertising

Kingston weather history for previous 24 hours

 ConditionsComfort  
Time TempWeatherWind HumidityBarometerVisibility
3:00 AM
Feb 2
72 °FClear.12 mph94%29.77 "HgN/A
2:30 AM72 °FClear.13 mph94%29.77 "HgN/A
2:00 AM72 °FClear.12 mph94%29.77 "HgN/A
1:30 AM72 °FPassing clouds.9 mph94%29.77 "HgN/A
1:00 AM72 °FClear.12 mph94%29.80 "HgN/A
12:30 AM72 °FClear.12 mph94%29.80 "HgN/A
12:00 AM72 °FClear.9 mph94%29.80 "HgN/A
11:30 PM
Feb 1
72 °FPassing clouds.12 mph94%29.80 "HgN/A
10:30 PM72 °FPartly cloudy.12 mph94%29.80 "HgN/A
10:00 PM72 °FPartly cloudy.9 mph94%29.83 "HgN/A
9:30 PM72 °FLight rain. Passing clouds.10 mph94%29.80 "HgN/A
9:00 PM72 °FLight rain. Mostly cloudy.10 mph94%29.80 "HgN/A
8:30 PM72 °FPassing clouds.14 mph94%29.77 "HgN/A
8:00 PM72 °FPartly cloudy.14 mph94%29.77 "HgN/A
7:30 PM72 °FLight rain. Passing clouds.7 mph94%29.80 "HgN/A
7:00 PM72 °FPartly cloudy.10 mph94%29.77 "HgN/A
6:30 PM72 °FOvercast.14 mph88%29.77 "HgN/A
6:00 PM72 °FLight rain. More clouds than sun.15 mph88%29.74 "HgN/A
5:30 PM73 °FBroken clouds.10 mph83%29.77 "HgN/A
5:00 PM73 °FBroken clouds.10 mph83%29.77 "HgN/A
4:30 PM73 °FBroken clouds.13 mph78%29.74 "HgN/A
4:00 PM73 °FBroken clouds.14 mph83%29.74 "HgN/A
3:30 PM73 °FScattered clouds.12 mph89%29.74 "HgN/A
2:30 PM73 °FLight rain. Partly sunny.12 mph89%29.77 "HgN/A
2:00 PM73 °FPartly sunny.15 mph83%29.77 "HgN/A
1:30 PM73 °FPartly sunny.14 mph83%29.77 "HgN/A
1:00 PM73 °FPartly sunny.13 mph83%29.77 "HgN/A
12:30 PM75 °FBroken clouds.12 mph78%29.77 "HgN/A
12:00 PM75 °FBroken clouds.17 mph78%29.77 "HgN/A
11:30 AM75 °FPartly sunny.16 mph83%29.77 "HgN/A
11:00 AM73 °FBroken clouds.15 mph83%29.77 "HgN/A
10:30 AM73 °FPartly sunny.14 mph89%29.80 "HgN/A
10:00 AM73 °FBroken clouds.21 mph83%29.77 "HgN/A
9:30 AM73 °FBroken clouds.17 mph83%29.80 "HgN/A
9:00 AM73 °FBroken clouds.17 mph83%29.80 "HgN/A
8:30 AM73 °FPartly sunny.14 mph83%29.80 "HgN/A
8:00 AM73 °FLight rain. Partly sunny.13 mph78%29.80 "HgN/A
7:30 AM73 °FPartly sunny.14 mph83%29.80 "HgN/A
7:00 AM73 °FScattered clouds.13 mph83%29.80 "HgN/A
6:30 AM72 °FSunny.15 mph83%29.77 "HgN/A
6:00 AM72 °FSunny.12 mph83%29.77 "HgN/A
5:30 AM72 °FSunny.12 mph83%29.77 "HgN/A
5:00 AM72 °FPassing clouds.10 mph83%29.77 "HgN/A
4:30 AM72 °FPassing clouds.9 mph83%29.77 "HgN/A
4:00 AM72 °FPassing clouds.9 mph88%29.77 "HgN/A
Weather by CustomWeather, © 2014

See weather overviewHow to use our weather pages